JBU21 KBOS-KPBI

Flight info

Callsign JBU21
Flight time 3h 0m
Altitude 36000
Route SSOXS7 SSOXS Q167 RIFLE DCT HEADI Q97 KALDA Q131 EARZZ Q131 WAALT Y289 DULEE CLMNT2
Aircraft A321/M-SDE3GHIJ3J4J7M3P2RWZ/LB1

Departure

Time 2026-05-04 11:50
Airport Boston Logan International Airport (KBOS)

Arrival

Time 2026-05-04 14:51
Airport Palm Beach International Airport (KPBI)
Time Latitude Longitude Altitude Speed Heading
2026-05-04 11:19 42.36565 -71.01663 30 ft 0 kts 336°
2026-05-04 11:37 42.36563 -71.01662 26 ft 2 kts 336°
2026-05-04 11:37 42.36543 -71.01650 30 ft 3 kts 336°
2026-05-04 11:37 42.36522 -71.01637 28 ft 3 kts 336°
2026-05-04 11:38 42.36505 -71.01627 30 ft 3 kts 339°
2026-05-04 11:38 42.36484 -71.01619 29 ft 3 kts
2026-05-04 11:38 42.36464 -71.01624 29 ft 3 kts 38°
2026-05-04 11:38 42.36456 -71.01633 27 ft 3 kts 60°
2026-05-04 11:39 42.36456 -71.01609 28 ft 3 kts 111°
2026-05-04 11:39 42.36446 -71.01587 28 ft 3 kts 121°
2026-05-04 11:40 42.36406 -71.01499 27 ft 0 kts 121°
2026-05-04 11:43 42.36405 -71.01496 27 ft 2 kts 121°
2026-05-04 11:43 42.36395 -71.01476 27 ft 3 kts 121°
2026-05-04 11:43 42.36391 -71.01465 27 ft 0 kts 121°
2026-05-04 11:44 42.36387 -71.01448 28 ft 4 kts 98°
2026-05-04 11:44 42.36410 -71.01398 28 ft 8 kts 32°
2026-05-04 11:44 42.36467 -71.01366 30 ft 10 kts 22°
2026-05-04 11:44 42.36533 -71.01325 27 ft 11 kts 26°
2026-05-04 11:45 42.36608 -71.01282 27 ft 12 kts 18°
2026-05-04 11:45 42.36695 -71.01250 27 ft 14 kts 15°
2026-05-04 11:45 42.36770 -71.01252 29 ft 9 kts 335°
2026-05-04 11:45 42.36830 -71.01281 28 ft 10 kts 16°
2026-05-04 11:46 42.36888 -71.01221 27 ft 11 kts 40°
2026-05-04 11:46 42.36952 -71.01148 27 ft 13 kts 40°
2026-05-04 11:46 42.37030 -71.01082 26 ft 14 kts 26°
2026-05-04 11:46 42.37122 -71.01023 28 ft 15 kts 25°
2026-05-04 11:47 42.37222 -71.00958 27 ft 16 kts 26°
2026-05-04 11:47 42.37330 -71.00893 28 ft 18 kts 20°
2026-05-04 11:47 42.37442 -71.00839 28 ft 14 kts 19°
2026-05-04 11:47 42.37537 -71.00793 26 ft 15 kts 20°
2026-05-04 11:48 42.37639 -71.00743 27 ft 16 kts 20°
2026-05-04 11:48 42.37733 -71.00698 28 ft 12 kts 20°
2026-05-04 11:48 42.37809 -71.00660 28 ft 10 kts 27°
2026-05-04 11:48 42.37834 -71.00578 27 ft 11 kts 104°
2026-05-04 11:49 42.37809 -71.00495 28 ft 8 kts 123°
2026-05-04 11:49 42.37762 -71.00489 27 ft 0 kts 198°
2026-05-04 11:50 42.37696 -71.00521 27 ft 37 kts 200°
2026-05-04 11:50 42.37208 -71.00755 30 ft 109 kts 200°
2026-05-04 11:50 42.36301 -71.01194 71 ft 160 kts 200°
2026-05-04 11:50 42.35272 -71.01655 801 ft 156 kts 192°
2026-05-04 11:51 42.34181 -71.01480 1509 ft 171 kts 168°
2026-05-04 11:51 42.33150 -71.00365 1887 ft 207 kts 138°
2026-05-04 11:51 42.32207 -70.98752 2101 ft 230 kts 132°
2026-05-04 11:51 42.31516 -70.96714 2579 ft 246 kts 108°
2026-05-04 11:52 42.31352 -70.94364 3097 ft 263 kts 86°
2026-05-04 11:52 42.31475 -70.91787 3442 ft 285 kts 92°
2026-05-04 11:52 42.31358 -70.89072 4129 ft 293 kts 95°
2026-05-04 11:52 42.31164 -70.86305 4932 ft 298 kts 95°
2026-05-04 11:53 42.30928 -70.83514 5740 ft 301 kts 96°
2026-05-04 11:53 42.30683 -70.80708 6551 ft 304 kts 96°
2026-05-04 11:53 42.30428 -70.77853 7328 ft 308 kts 98°
2026-05-04 11:53 42.29745 -70.75114 8088 ft 310 kts 121°
2026-05-04 11:55 42.18308 -70.60839 12008 ft 360 kts 166°
2026-05-04 11:55 42.15935 -70.59689 12658 ft 365 kts 166°
2026-05-04 11:56 42.13534 -70.58528 13188 ft 367 kts 167°
2026-05-04 11:56 42.11066 -70.57852 13728 ft 359 kts 185°
2026-05-04 11:56 42.08626 -70.58219 14221 ft 349 kts 203°
2026-05-04 11:56 42.06423 -70.59474 14720 ft 344 kts 213°
2026-05-04 11:57 42.04280 -70.60915 15219 ft 346 kts 213°
2026-05-04 11:57 42.02115 -70.62373 15730 ft 349 kts 213°
2026-05-04 11:57 41.99979 -70.63808 16240 ft 352 kts 213°
2026-05-04 11:57 41.97787 -70.65275 16785 ft 355 kts 212°
2026-05-04 11:58 41.95559 -70.66756 17321 ft 359 kts 212°
2026-05-04 11:58 41.93305 -70.68254 17948 ft 363 kts 212°
2026-05-04 11:58 41.91032 -70.69765 18543 ft 366 kts 212°
2026-05-04 11:58 41.88739 -70.71286 19102 ft 369 kts 212°
2026-05-04 11:59 41.86453 -70.72797 19656 ft 373 kts 212°
2026-05-04 11:59 41.84116 -70.74339 20219 ft 376 kts 212°
2026-05-04 11:59 41.81753 -70.75963 20793 ft 378 kts 213°
2026-05-04 11:59 41.79442 -70.77666 21362 ft 380 kts 215°
2026-05-04 12:00 41.77164 -70.79409 21911 ft 382 kts 216°
2026-05-04 12:00 41.74851 -70.81198 22486 ft 385 kts 216°
2026-05-04 12:00 41.72531 -70.82987 23013 ft 388 kts 215°
2026-05-04 12:00 41.70164 -70.84793 23527 ft 391 kts 215°
2026-05-04 12:01 41.67784 -70.86588 23956 ft 394 kts 215°
2026-05-04 12:01 41.65379 -70.88385 24422 ft 396 kts 214°
2026-05-04 12:02 41.52197 -71.01214 27062 ft 389 kts 240°
2026-05-04 12:03 41.50707 -71.04231 27486 ft 391 kts 240°
2026-05-04 12:03 41.49199 -71.07256 27913 ft 392 kts 240°
2026-05-04 12:03 41.47679 -71.10287 28321 ft 394 kts 240°
2026-05-04 12:03 41.46168 -71.13291 28714 ft 396 kts 240°
2026-05-04 12:04 41.45131 -71.15350 28974 ft 397 kts 239°
2026-05-04 12:04 41.43590 -71.18406 29333 ft 398 kts 239°
2026-05-04 12:04 41.41537 -71.22475 29843 ft 401 kts 239°
2026-05-04 12:04 41.40482 -71.24564 30092 ft 402 kts 239°
2026-05-04 12:05 41.38921 -71.27659 30412 ft 404 kts 239°
2026-05-04 12:05 41.37351 -71.30775 30728 ft 406 kts 239°
2026-05-04 12:05 41.35777 -71.33896 31098 ft 405 kts 239°
2026-05-04 12:05 41.34236 -71.36953 31495 ft 404 kts 239°
2026-05-04 12:06 41.32703 -71.39994 31897 ft 403 kts 239°
2026-05-04 12:06 41.31142 -71.43086 32288 ft 403 kts 239°
2026-05-04 12:06 41.29577 -71.46179 32677 ft 402 kts 239°
2026-05-04 12:06 41.28016 -71.49259 33055 ft 402 kts 239°
2026-05-04 12:07 41.26462 -71.52324 33432 ft 401 kts 239°
2026-05-04 12:07 41.24894 -71.55410 33824 ft 400 kts 239°
2026-05-04 12:07 41.23332 -71.58475 34131 ft 401 kts 239°
2026-05-04 12:07 41.21767 -71.61547 34385 ft 402 kts 239°
2026-05-04 12:08 41.20200 -71.64625 34655 ft 402 kts 239°
2026-05-04 12:08 41.18635 -71.67706 34909 ft 402 kts 239°
2026-05-04 12:08 41.17066 -71.70787 35167 ft 403 kts 239°
2026-05-04 12:08 41.15498 -71.73858 35427 ft 403 kts 238°
2026-05-04 12:09 41.13919 -71.76944 35669 ft 403 kts 238°
2026-05-04 12:09 41.12373 -71.79979 35941 ft 403 kts 238°
2026-05-04 12:09 41.09249 -71.86130 36018 ft 400 kts 238°
2026-05-04 12:10 41.06136 -71.92240 36029 ft 400 kts 238°
2026-05-04 12:10 41.02939 -71.98301 36026 ft 402 kts 236°
2026-05-04 12:11 40.99231 -72.03881 36027 ft 406 kts 228°
2026-05-04 12:11 40.95204 -72.09119 36032 ft 405 kts 228°
2026-05-04 12:12 40.91172 -72.14335 36033 ft 406 kts 226°
2026-05-04 12:12 40.87146 -72.19529 36025 ft 405 kts 228°
2026-05-04 12:14 40.71009 -72.40289 36050 ft 405 kts 228°
2026-05-04 12:15 40.66968 -72.45469 36055 ft 405 kts 228°
2026-05-04 12:15 40.62922 -72.50655 36035 ft 405 kts 228°
2026-05-04 12:16 40.58871 -72.55823 36062 ft 404 kts 228°
2026-05-04 12:16 40.54826 -72.60958 36088 ft 404 kts 228°
2026-05-04 12:17 40.50809 -72.66062 36076 ft 404 kts 228°
2026-05-04 12:17 40.46762 -72.71203 36070 ft 404 kts 228°
2026-05-04 12:18 40.42714 -72.76341 36058 ft 404 kts 228°
2026-05-04 12:18 40.38666 -72.81458 36064 ft 404 kts 228°
2026-05-04 12:19 40.34619 -72.86558 36073 ft 404 kts 228°
2026-05-04 12:19 40.30572 -72.91658 36076 ft 403 kts 228°
2026-05-04 12:20 40.26538 -72.96740 36057 ft 403 kts 228°
2026-05-04 12:20 40.22492 -73.01821 36065 ft 403 kts 228°
2026-05-04 12:21 40.18431 -73.06900 36066 ft 403 kts 227°
2026-05-04 12:21 40.14374 -73.11971 36069 ft 403 kts 227°
2026-05-04 12:22 40.10319 -73.17042 36045 ft 403 kts 227°
2026-05-04 12:22 40.06265 -73.22101 36059 ft 403 kts 227°
2026-05-04 12:23 40.02205 -73.27146 36071 ft 403 kts 227°
2026-05-04 12:23 39.98147 -73.32188 36079 ft 403 kts 227°
2026-05-04 12:24 39.94115 -73.37199 36073 ft 403 kts 227°
2026-05-04 12:24 39.90048 -73.42245 36057 ft 404 kts 227°
2026-05-04 12:25 39.85973 -73.47278 36071 ft 404 kts 227°
2026-05-04 12:25 39.81412 -73.51582 36079 ft 412 kts 213°
2026-05-04 12:26 39.76458 -73.55278 36077 ft 409 kts 217°
2026-05-04 12:26 39.71644 -73.59239 36061 ft 409 kts 217°
2026-05-04 12:27 39.66821 -73.63175 36078 ft 409 kts 217°
2026-05-04 12:27 39.61963 -73.67026 36098 ft 410 kts 216°
2026-05-04 12:28 39.57113 -73.70834 36084 ft 411 kts 216°
2026-05-04 12:28 39.52215 -73.74673 36082 ft 412 kts 216°
2026-05-04 12:29 39.47307 -73.78518 36089 ft 412 kts 216°
2026-05-04 12:29 39.42403 -73.82368 36089 ft 412 kts 217°
2026-05-04 12:30 39.37496 -73.86222 36096 ft 413 kts 216°
2026-05-04 12:30 39.32576 -73.90064 36080 ft 413 kts 216°
2026-05-04 12:31 39.27658 -73.93896 36092 ft 413 kts 216°
2026-05-04 12:31 39.22747 -73.97727 36104 ft 412 kts 216°
2026-05-04 12:32 39.15379 -74.03465 36114 ft 413 kts 216°
2026-05-04 12:33 39.10490 -74.07264 36093 ft 413 kts 216°
2026-05-04 12:33 39.05559 -74.11084 36102 ft 413 kts 216°
2026-05-04 12:34 39.00627 -74.14887 36112 ft 413 kts 216°
2026-05-04 12:34 38.95700 -74.18702 36114 ft 413 kts 216°
2026-05-04 12:35 38.90775 -74.22506 36101 ft 413 kts 216°
2026-05-04 12:35 38.85852 -74.26291 36115 ft 412 kts 216°
2026-05-04 12:36 38.80931 -74.30067 36117 ft 412 kts 216°
2026-05-04 12:36 38.76012 -74.33836 36126 ft 412 kts 216°
2026-05-04 12:37 38.71095 -74.37610 36112 ft 412 kts 216°
2026-05-04 12:37 38.66165 -74.41387 36115 ft 413 kts 216°
2026-05-04 12:38 38.61224 -74.45153 36119 ft 414 kts 216°
2026-05-04 12:38 38.56279 -74.48925 36129 ft 414 kts 216°
2026-05-04 12:39 38.51329 -74.52692 36112 ft 414 kts 216°
2026-05-04 12:39 38.46384 -74.56444 36127 ft 413 kts 216°
2026-05-04 12:40 38.41444 -74.60194 36124 ft 413 kts 216°
2026-05-04 12:40 38.36503 -74.63940 36123 ft 413 kts 216°
2026-05-04 12:41 38.31591 -74.67656 36089 ft 413 kts 216°
2026-05-04 12:41 38.26649 -74.71385 36114 ft 413 kts 216°
2026-05-04 12:42 38.21715 -74.75106 36122 ft 412 kts 216°
2026-05-04 12:42 38.16785 -74.78826 36122 ft 412 kts 216°
2026-05-04 12:43 38.11851 -74.82535 36101 ft 412 kts 216°
2026-05-04 12:43 38.06919 -74.86222 36119 ft 411 kts 216°
2026-05-04 12:44 38.02000 -74.89904 36129 ft 410 kts 216°
2026-05-04 12:44 37.97094 -74.93583 36132 ft 410 kts 216°
2026-05-04 12:45 37.92186 -74.97250 36139 ft 409 kts 216°
2026-05-04 12:45 37.87284 -75.00892 36132 ft 408 kts 216°
2026-05-04 12:46 37.82435 -75.04499 36140 ft 406 kts 216°
2026-05-04 12:46 37.77568 -75.08123 36145 ft 406 kts 216°
2026-05-04 12:47 37.72691 -75.11750 36130 ft 407 kts 216°
2026-05-04 12:47 37.67799 -75.15370 36121 ft 407 kts 216°
2026-05-04 12:48 37.62906 -75.18979 36129 ft 407 kts 216°
2026-05-04 12:48 37.58024 -75.22592 36127 ft 407 kts 216°
2026-05-04 12:49 37.53966 -75.25588 36131 ft 407 kts 216°
2026-05-04 12:49 37.49084 -75.29185 36132 ft 407 kts 216°
2026-05-04 12:50 37.44200 -75.32779 36134 ft 406 kts 216°
2026-05-04 12:50 37.39313 -75.36365 36131 ft 407 kts 216°
2026-05-04 12:51 37.34428 -75.39943 36133 ft 407 kts 216°
2026-05-04 12:51 37.29532 -75.43527 36138 ft 407 kts 216°
2026-05-04 12:52 37.24637 -75.47106 36103 ft 408 kts 216°
2026-05-04 12:52 37.19729 -75.50683 36119 ft 408 kts 216°
2026-05-04 12:53 37.14827 -75.54257 36129 ft 408 kts 216°
2026-05-04 12:53 37.09918 -75.57824 36135 ft 408 kts 216°
2026-05-04 12:54 37.05008 -75.61387 36118 ft 407 kts 216°
2026-05-04 12:54 37.00108 -75.64946 36137 ft 406 kts 216°
2026-05-04 12:55 36.95213 -75.68488 36143 ft 406 kts 216°
2026-05-04 12:55 36.90357 -75.71997 36140 ft 405 kts 216°
2026-05-04 12:56 36.85477 -75.75532 36138 ft 405 kts 216°
2026-05-04 12:56 36.80657 -75.79128 36135 ft 402 kts 218°
2026-05-04 12:57 36.76065 -75.83073 36126 ft 401 kts 221°
2026-05-04 12:57 36.71526 -75.87142 36123 ft 402 kts 220°
2026-05-04 12:58 36.66951 -75.91166 36131 ft 403 kts 220°
2026-05-04 12:58 36.62336 -75.95156 36108 ft 404 kts 220°
2026-05-04 12:59 36.57711 -75.99117 36129 ft 404 kts 218°
2026-05-04 12:59 36.52852 -76.02697 36153 ft 406 kts 215°
2026-05-04 13:00 36.47911 -76.06117 36153 ft 406 kts 214°
2026-05-04 13:00 36.42968 -76.09517 36153 ft 406 kts 215°
2026-05-04 13:01 36.38049 -76.12947 36125 ft 405 kts 215°
2026-05-04 13:01 36.33143 -76.16379 36139 ft 405 kts 215°
2026-05-04 13:02 36.28226 -76.19811 36127 ft 406 kts 215°
2026-05-04 13:02 36.23290 -76.23250 36126 ft 408 kts 215°
2026-05-04 13:03 36.18338 -76.26697 36103 ft 408 kts 215°
2026-05-04 13:03 36.13384 -76.30141 36128 ft 408 kts 215°
2026-05-04 13:04 36.08431 -76.33571 36157 ft 408 kts 215°
2026-05-04 13:04 36.03476 -76.36996 36161 ft 408 kts 215°
2026-05-04 13:05 35.98516 -76.40426 36164 ft 408 kts 215°
2026-05-04 13:05 35.93560 -76.43856 36137 ft 408 kts 215°
2026-05-04 13:06 35.88606 -76.47271 36163 ft 408 kts 215°
2026-05-04 13:06 35.83655 -76.50677 36177 ft 407 kts 215°
2026-05-04 13:07 35.78703 -76.54080 36159 ft 408 kts 215°
2026-05-04 13:07 35.73782 -76.57457 36124 ft 409 kts 215°
2026-05-04 13:08 35.68805 -76.60863 36131 ft 409 kts 215°
2026-05-04 13:08 35.63827 -76.64275 36147 ft 410 kts 215°
2026-05-04 13:09 35.58843 -76.67685 36156 ft 410 kts 215°
2026-05-04 13:09 35.53855 -76.71091 36168 ft 410 kts 215°
2026-05-04 13:10 35.48859 -76.74496 36129 ft 411 kts 215°
2026-05-04 13:10 35.43849 -76.77900 36148 ft 412 kts 215°
2026-05-04 13:11 35.38840 -76.81308 36159 ft 412 kts 216°
2026-05-04 13:11 35.34050 -76.84955 36165 ft 402 kts 226°
2026-05-04 13:12 35.29810 -76.89492 36174 ft 402 kts 227°
2026-05-04 13:12 35.25592 -76.94002 36172 ft 403 kts 227°
2026-05-04 13:13 35.21371 -76.98512 36168 ft 403 kts 227°
2026-05-04 13:13 35.17144 -77.03019 36169 ft 403 kts 227°
2026-05-04 13:14 35.12942 -77.07496 36175 ft 403 kts 227°
2026-05-04 13:14 35.08708 -77.11999 36178 ft 404 kts 227°
2026-05-04 13:15 35.04470 -77.16506 36157 ft 404 kts 227°
2026-05-04 13:15 35.00229 -77.21005 36170 ft 404 kts 227°
2026-05-04 13:16 34.95996 -77.25488 36177 ft 404 kts 228°
2026-05-04 13:16 34.91743 -77.29987 36175 ft 405 kts 228°
2026-05-04 13:17 34.87495 -77.34484 36171 ft 404 kts 228°
2026-05-04 13:17 34.83241 -77.38967 36119 ft 404 kts 228°
2026-05-04 13:18 34.78984 -77.43448 36125 ft 405 kts 228°
2026-05-04 13:18 34.74720 -77.47944 36139 ft 406 kts 228°
2026-05-04 13:19 34.70449 -77.52431 36148 ft 406 kts 228°
2026-05-04 13:19 34.66172 -77.56916 36155 ft 406 kts 228°
2026-05-04 13:20 34.61923 -77.61362 36167 ft 406 kts 228°
2026-05-04 13:20 34.57530 -77.65704 36129 ft 414 kts 220°
2026-05-04 13:21 34.52117 -77.68474 36143 ft 435 kts 200°
2026-05-04 13:21 34.46162 -77.69975 36147 ft 437 kts 200°
2026-05-04 13:22 34.40203 -77.71492 36146 ft 438 kts 200°
2026-05-04 13:22 34.34225 -77.73022 36118 ft 438 kts 200°
2026-05-04 13:23 34.28291 -77.74532 36136 ft 439 kts 200°
2026-05-04 13:23 34.22299 -77.76047 36149 ft 440 kts 200°
2026-05-04 13:24 34.16305 -77.77559 36159 ft 440 kts 200°
2026-05-04 13:24 34.10308 -77.79077 36139 ft 440 kts 199°
2026-05-04 13:25 34.01306 -77.81343 36166 ft 440 kts 199°
2026-05-04 13:25 33.95309 -77.82853 36168 ft 440 kts 199°
2026-05-04 13:26 33.89308 -77.84367 36174 ft 440 kts 199°
2026-05-04 13:26 33.83312 -77.85877 36152 ft 440 kts 199°
2026-05-04 13:27 33.77330 -77.87430 36163 ft 438 kts 201°
2026-05-04 13:27 33.71507 -77.89348 36170 ft 436 kts 204°
2026-05-04 13:28 33.65705 -77.91452 36172 ft 435 kts 204°
2026-05-04 13:28 33.59888 -77.93508 36142 ft 436 kts 203°
2026-05-04 13:29 33.54043 -77.95482 36157 ft 437 kts 202°
2026-05-04 13:29 33.48191 -77.97438 36171 ft 437 kts 203°
2026-05-04 13:30 33.42341 -77.99406 36175 ft 437 kts 203°
2026-05-04 13:30 33.36496 -78.01377 36154 ft 436 kts 203°
2026-05-04 13:31 33.30645 -78.03351 36168 ft 436 kts 203°
2026-05-04 13:31 33.24801 -78.05322 36175 ft 436 kts 203°
2026-05-04 13:32 33.18960 -78.07286 36183 ft 436 kts 203°
2026-05-04 13:32 33.14102 -78.08915 36185 ft 436 kts 203°
2026-05-04 13:33 33.08257 -78.10861 36155 ft 436 kts 202°
2026-05-04 13:33 33.02421 -78.12811 36168 ft 435 kts 203°
2026-05-04 13:34 32.96591 -78.14768 36179 ft 435 kts 202°
2026-05-04 13:34 32.90752 -78.16712 36185 ft 435 kts 202°
2026-05-04 13:35 32.82016 -78.19621 36186 ft 435 kts 202°
2026-05-04 13:36 32.76188 -78.21562 36187 ft 435 kts 202°
2026-05-04 13:36 32.70395 -78.23479 36190 ft 435 kts 202°
2026-05-04 13:37 32.64566 -78.25410 36185 ft 435 kts 203°
2026-05-04 13:37 32.58746 -78.27343 36157 ft 434 kts 202°
2026-05-04 13:38 32.52926 -78.29265 36182 ft 434 kts 202°
2026-05-04 13:38 32.47112 -78.31188 36191 ft 434 kts 202°
2026-05-04 13:39 32.41292 -78.33105 36192 ft 434 kts 202°
2026-05-04 13:39 32.35481 -78.35021 36201 ft 433 kts 202°
2026-05-04 13:40 32.29676 -78.36938 36178 ft 433 kts 202°
2026-05-04 13:40 32.23877 -78.38835 36191 ft 432 kts 202°
2026-05-04 13:41 32.18082 -78.40727 36195 ft 432 kts 202°
2026-05-04 13:41 32.12286 -78.42630 36196 ft 432 kts 202°
2026-05-04 13:42 32.03605 -78.45457 36158 ft 431 kts 202°
2026-05-04 13:42 31.97862 -78.47339 36177 ft 431 kts 202°
2026-05-04 13:43 31.92087 -78.49218 36187 ft 430 kts 202°
2026-05-04 13:43 31.86314 -78.51097 36197 ft 430 kts 202°
2026-05-04 13:44 31.80544 -78.52974 36171 ft 430 kts 202°
2026-05-04 13:44 31.74782 -78.54848 36184 ft 430 kts 202°
2026-05-04 13:45 31.69016 -78.56719 36191 ft 430 kts 202°
2026-05-04 13:45 31.63249 -78.58581 36191 ft 430 kts 202°
2026-05-04 13:46 31.57483 -78.60453 36194 ft 429 kts 202°
2026-05-04 13:46 31.51735 -78.62332 36172 ft 428 kts 203°
2026-05-04 13:47 31.46025 -78.64295 36187 ft 427 kts 204°
2026-05-04 13:47 31.40328 -78.66279 36194 ft 427 kts 203°
2026-05-04 13:48 31.34625 -78.68232 36198 ft 427 kts 203°
2026-05-04 13:48 31.28912 -78.70178 36159 ft 427 kts 203°
2026-05-04 13:49 31.23211 -78.72118 36171 ft 427 kts 203°
2026-05-04 13:49 31.17509 -78.74055 36180 ft 427 kts 203°
2026-05-04 13:50 31.11852 -78.75991 36185 ft 426 kts 204°
2026-05-04 13:50 31.06121 -78.77944 36187 ft 426 kts 203°
2026-05-04 13:51 31.00461 -78.79868 36157 ft 426 kts 204°
2026-05-04 13:51 30.94764 -78.81798 36176 ft 426 kts 204°
2026-05-04 13:52 30.86215 -78.84673 36182 ft 426 kts 203°
2026-05-04 13:53 30.80521 -78.86602 36187 ft 425 kts 204°
2026-05-04 13:53 30.74842 -78.88531 36138 ft 425 kts 204°
2026-05-04 13:54 30.66314 -78.91398 36168 ft 425 kts 204°
2026-05-04 13:55 30.57794 -78.94271 36172 ft 425 kts 204°
2026-05-04 13:55 30.49272 -78.97139 36176 ft 425 kts 204°
2026-05-04 13:56 30.43583 -78.99038 36166 ft 425 kts 204°
2026-05-04 13:57 30.34927 -79.01529 36176 ft 429 kts 200°
2026-05-04 13:58 30.23291 -79.04418 36182 ft 428 kts 200°
2026-05-04 13:58 30.14576 -79.06713 36178 ft 428 kts 201°
2026-05-04 13:59 30.08753 -79.08238 36174 ft 429 kts 201°
2026-05-04 14:00 30.00011 -79.10523 36168 ft 430 kts 201°
2026-05-04 14:00 29.91237 -79.12812 36135 ft 430 kts 201°
2026-05-04 14:01 29.85387 -79.14323 36156 ft 431 kts 201°
2026-05-04 14:02 29.83944 -79.14697 36157 ft 431 kts 201°
2026-05-04 14:03 29.77597 -79.16336 36161 ft 431 kts 201°
2026-05-04 14:03 29.71761 -79.17822 36164 ft 431 kts 201°
2026-05-04 14:04 29.62979 -79.20051 35808 ft 427 kts 201°
2026-05-04 14:04 29.60086 -79.20786 35559 ft 425 kts 201°
2026-05-04 14:04 29.57206 -79.21518 35324 ft 424 kts 201°
2026-05-04 14:05 29.51420 -79.22987 34851 ft 426 kts 201°
2026-05-04 14:05 29.48525 -79.23726 34616 ft 427 kts 201°
2026-05-04 14:05 29.46601 -79.24216 34461 ft 427 kts 201°
2026-05-04 14:06 29.42713 -79.25203 34183 ft 429 kts 201°
2026-05-04 14:06 29.36878 -79.26683 34134 ft 431 kts 201°
2026-05-04 14:07 29.31011 -79.28164 34141 ft 432 kts 201°
2026-05-04 14:07 29.25141 -79.29648 34138 ft 432 kts 201°
2026-05-04 14:08 29.19268 -79.31132 34136 ft 432 kts 201°
2026-05-04 14:08 29.13395 -79.32621 34136 ft 432 kts 201°
2026-05-04 14:09 29.04561 -79.34839 34101 ft 435 kts 202°
2026-05-04 14:10 28.95693 -79.37065 34122 ft 435 kts 202°
2026-05-04 14:10 28.89773 -79.38559 34136 ft 436 kts 202°
2026-05-04 14:11 28.83886 -79.40041 34141 ft 436 kts 202°
2026-05-04 14:11 28.74984 -79.42264 34121 ft 436 kts 202°
2026-05-04 14:12 28.69049 -79.43750 34117 ft 437 kts 202°
2026-05-04 14:13 28.60166 -79.45971 34094 ft 439 kts 202°
2026-05-04 14:13 28.57189 -79.46714 33707 ft 437 kts 202°
2026-05-04 14:13 28.54223 -79.47450 33150 ft 434 kts 201°
2026-05-04 14:13 28.51285 -79.48177 32703 ft 429 kts 201°
2026-05-04 14:14 28.48379 -79.48894 32198 ft 426 kts 198°
2026-05-04 14:14 28.42635 -79.50304 31207 ft 419 kts 201°
2026-05-04 14:14 28.39797 -79.51013 30712 ft 416 kts 201°
2026-05-04 14:15 28.34178 -79.52418 29682 ft 410 kts 201°
2026-05-04 14:15 28.29592 -79.53562 28893 ft 402 kts 201°
2026-05-04 14:16 28.24224 -79.54986 28001 ft 391 kts 202°
2026-05-04 14:16 28.21593 -79.55709 27603 ft 386 kts 202°
2026-05-04 14:17 28.16413 -79.57151 26790 ft 381 kts 202°
2026-05-04 14:17 28.13846 -79.57860 26397 ft 378 kts 201°
2026-05-04 14:17 28.08772 -79.59241 25649 ft 372 kts 201°
2026-05-04 14:18 28.06271 -79.59920 25284 ft 368 kts 201°
2026-05-04 14:18 28.01341 -79.61258 24571 ft 360 kts 201°
2026-05-04 14:19 27.96498 -79.62575 24073 ft 364 kts 201°
2026-05-04 14:19 27.93996 -79.63268 24095 ft 373 kts 201°
2026-05-04 14:19 27.91459 -79.63963 24093 ft 376 kts 200°
2026-05-04 14:19 27.88914 -79.64653 24092 ft 377 kts 200°
2026-05-04 14:20 27.86357 -79.65342 24091 ft 377 kts 200°
2026-05-04 14:20 27.83801 -79.66029 24092 ft 377 kts 200°
2026-05-04 14:20 27.81249 -79.66716 24092 ft 377 kts 200°
2026-05-04 14:21 27.76061 -79.68119 22652 ft 390 kts 200°
2026-05-04 14:21 27.73417 -79.68833 22059 ft 390 kts 199°
2026-05-04 14:21 27.70811 -79.69529 21150 ft 381 kts 199°
2026-05-04 14:21 27.68250 -79.70213 20025 ft 375 kts 200°
2026-05-04 14:22 27.65774 -79.70876 19222 ft 363 kts 200°
2026-05-04 14:22 27.63382 -79.71512 18539 ft 348 kts 200°
2026-05-04 14:22 27.61049 -79.72138 17782 ft 340 kts 200°
2026-05-04 14:22 27.58759 -79.72760 17015 ft 336 kts 200°
2026-05-04 14:23 27.54184 -79.74008 15545 ft 344 kts 199°
2026-05-04 14:23 27.51841 -79.74646 14831 ft 348 kts 198°
2026-05-04 14:23 27.49472 -79.75288 14133 ft 352 kts 198°
2026-05-04 14:24 27.47103 -79.75925 13782 ft 345 kts 197°
2026-05-04 14:24 27.44796 -79.76537 13390 ft 337 kts 198°
2026-05-04 14:24 27.42526 -79.77138 12945 ft 333 kts 197°
2026-05-04 14:24 27.40287 -79.77730 12508 ft 329 kts 198°
2026-05-04 14:25 27.38069 -79.78321 12073 ft 325 kts 198°
2026-05-04 14:25 27.33726 -79.79494 11214 ft 318 kts 198°
2026-05-04 14:25 27.31576 -79.80074 10789 ft 316 kts 198°
2026-05-04 14:26 27.29469 -79.80640 10444 ft 307 kts 197°
2026-05-04 14:26 27.27429 -79.81184 10048 ft 295 kts 197°
2026-05-04 14:26 27.25468 -79.81722 9619 ft 285 kts 202°
2026-05-04 14:26 27.23678 -79.82604 9185 ft 280 kts 208°
2026-05-04 14:27 27.21913 -79.83551 8754 ft 280 kts 209°
2026-05-04 14:27 27.20142 -79.84495 8360 ft 281 kts 209°
2026-05-04 14:27 27.18368 -79.85438 7994 ft 283 kts 207°
2026-05-04 14:27 27.16591 -79.86384 7622 ft 282 kts 207°
2026-05-04 14:28 27.14929 -79.87534 7265 ft 281 kts 226°
2026-05-04 14:28 27.13859 -79.89339 6917 ft 280 kts 249°
2026-05-04 14:28 27.13168 -79.91404 6567 ft 284 kts 251°
2026-05-04 14:28 27.12529 -79.93506 6186 ft 285 kts 252°
2026-05-04 14:29 27.11242 -79.97717 5450 ft 285 kts 253°
2026-05-04 14:29 27.09108 -80.01301 4918 ft 283 kts 216°
2026-05-04 14:30 27.07466 -80.02528 4666 ft 285 kts 213°
2026-05-04 14:30 27.05783 -80.03725 4415 ft 288 kts 212°
2026-05-04 14:30 27.02445 -80.06092 4021 ft 286 kts 212°
2026-05-04 14:31 27.00771 -80.07292 3999 ft 287 kts 212°
2026-05-04 14:31 26.97429 -80.09698 3996 ft 282 kts 213°
2026-05-04 14:32 26.94152 -80.12213 4004 ft 286 kts 227°
2026-05-04 14:32 26.93140 -80.14096 4003 ft 282 kts 256°
2026-05-04 14:32 26.92894 -80.16236 4005 ft 278 kts 271°
2026-05-04 14:32 26.92849 -80.18413 4005 ft 280 kts 269°
2026-05-04 14:33 26.92447 -80.20515 3991 ft 272 kts 248°
2026-05-04 14:33 26.91611 -80.22351 4001 ft 256 kts 243°
2026-05-04 14:33 26.90765 -80.24081 4011 ft 253 kts 242°
2026-05-04 14:33 26.89922 -80.25785 4005 ft 249 kts 242°
2026-05-04 14:34 26.89087 -80.27489 4005 ft 250 kts 242°
2026-05-04 14:34 26.88239 -80.29192 4001 ft 253 kts 242°
2026-05-04 14:34 26.87345 -80.30901 3999 ft 253 kts 234°
2026-05-04 14:34 26.86004 -80.32159 4000 ft 252 kts 203°
2026-05-04 14:35 26.84303 -80.32521 4003 ft 250 kts 177°
2026-05-04 14:35 26.82580 -80.32425 4000 ft 249 kts 174°
2026-05-04 14:35 26.80855 -80.32544 3992 ft 250 kts 199°
2026-05-04 14:35 26.79408 -80.33569 4008 ft 247 kts 231°
2026-05-04 14:36 26.78652 -80.35232 3997 ft 239 kts 263°
2026-05-04 14:36 26.78531 -80.37070 4000 ft 237 kts 273°
2026-05-04 14:36 26.78517 -80.38900 3996 ft 238 kts 273°
2026-05-04 14:36 26.78533 -80.40775 4002 ft 238 kts 272°
2026-05-04 14:37 26.78557 -80.42634 4002 ft 240 kts 274°
2026-05-04 14:37 26.78556 -80.44473 3987 ft 238 kts 275°
2026-05-04 14:37 26.78545 -80.46343 3996 ft 240 kts 271°
2026-05-04 14:37 26.78550 -80.48214 3997 ft 239 kts 272°
2026-05-04 14:38 26.78569 -80.50078 4005 ft 239 kts 275°
2026-05-04 14:38 26.78570 -80.51940 4002 ft 240 kts 272°
2026-05-04 14:38 26.78586 -80.53799 4000 ft 239 kts 274°
2026-05-04 14:38 26.78613 -80.55659 4006 ft 240 kts 274°
2026-05-04 14:39 26.78646 -80.57516 3999 ft 237 kts 274°
2026-05-04 14:39 26.78688 -80.59309 3991 ft 223 kts 271°
2026-05-04 14:39 26.78271 -80.60958 3929 ft 224 kts 237°
2026-05-04 14:40 26.75596 -80.62481 3440 ft 226 kts 185°
2026-05-04 14:40 26.74039 -80.62639 3182 ft 223 kts 184°
2026-05-04 14:40 26.72544 -80.62494 3025 ft 212 kts 154°
2026-05-04 14:40 26.71405 -80.61526 3000 ft 204 kts 127°
2026-05-04 14:41 26.70512 -80.60297 3001 ft 203 kts 124°
2026-05-04 14:41 26.69673 -80.59024 3008 ft 203 kts 123°
2026-05-04 14:41 26.68485 -80.56272 2999 ft 195 kts 90°
2026-05-04 14:42 26.68875 -80.53326 3006 ft 192 kts 72°
2026-05-04 14:42 26.69185 -80.51874 3001 ft 193 kts 72°
2026-05-04 14:42 26.69500 -80.50419 3005 ft 192 kts 72°
2026-05-04 14:43 26.69763 -80.48950 3002 ft 192 kts 78°
2026-05-04 14:43 26.69820 -80.47446 3000 ft 194 kts 85°
2026-05-04 14:43 26.69790 -80.45972 3027 ft 189 kts 89°
2026-05-04 14:43 26.69736 -80.44529 3011 ft 181 kts 85°
2026-05-04 14:44 26.69678 -80.43142 3001 ft 177 kts 85°
2026-05-04 14:44 26.69625 -80.41772 3007 ft 175 kts 86°
2026-05-04 14:44 26.69570 -80.40421 2995 ft 175 kts 84°
2026-05-04 14:44 26.69515 -80.39063 2999 ft 175 kts 88°
2026-05-04 14:45 26.69459 -80.37709 3004 ft 174 kts 88°
2026-05-04 14:45 26.69403 -80.36350 3010 ft 176 kts 88°
2026-05-04 14:45 26.69347 -80.34987 3006 ft 173 kts 85°
2026-05-04 14:45 26.69290 -80.33646 3002 ft 174 kts 88°
2026-05-04 14:46 26.69234 -80.32300 3002 ft 174 kts 88°
2026-05-04 14:46 26.69177 -80.30946 3005 ft 173 kts 87°
2026-05-04 14:46 26.69120 -80.29601 3008 ft 174 kts 88°
2026-05-04 14:46 26.69063 -80.28241 2975 ft 175 kts 86°
2026-05-04 14:47 26.69006 -80.26889 2809 ft 175 kts 88°
2026-05-04 14:47 26.68949 -80.25547 2609 ft 170 kts 90°
2026-05-04 14:47 26.68893 -80.24225 2387 ft 170 kts 88°
2026-05-04 14:47 26.68837 -80.22910 2168 ft 168 kts 86°
2026-05-04 14:48 26.68783 -80.21649 1965 ft 160 kts 86°
2026-05-04 14:48 26.68732 -80.20480 1764 ft 147 kts 86°
2026-05-04 14:48 26.68685 -80.19375 1569 ft 139 kts 87°
2026-05-04 14:48 26.68640 -80.18324 1392 ft 134 kts 86°
2026-05-04 14:49 26.68596 -80.17291 1210 ft 132 kts 85°
2026-05-04 14:49 26.68553 -80.16269 1055 ft 132 kts 88°
2026-05-04 14:49 26.68510 -80.15235 883 ft 134 kts 87°
2026-05-04 14:49 26.68465 -80.14196 696 ft 135 kts 86°
2026-05-04 14:50 26.68414 -80.13163 551 ft 133 kts 85°
2026-05-04 14:50 26.68380 -80.12147 358 ft 131 kts 87°
2026-05-04 14:50 26.68334 -80.11118 171 ft 133 kts 87°
2026-05-04 14:50 26.68288 -80.10092 29 ft 127 kts 89°
2026-05-04 14:51 26.68258 -80.09376 22 ft 50 kts 92°
2026-05-04 14:51 26.68245 -80.09077 22 ft 35 kts 94°
2026-05-04 14:51 26.68234 -80.08822 22 ft 27 kts 93°
2026-05-04 14:51 26.68262 -80.08667 22 ft 18 kts 51°
2026-05-04 14:52 26.68331 -80.08669 22 ft 10 kts 306°
2026-05-04 14:52 26.68361 -80.08719 22 ft 7 kts 336°
2026-05-04 14:52 26.68413 -80.08721 22 ft 7 kts 345°
2026-05-04 14:52 26.68436 -80.08769 22 ft 7 kts 278°
2026-05-04 14:53 26.68439 -80.08827 22 ft 8 kts 272°
2026-05-04 14:53 26.68442 -80.08889 22 ft 8 kts 272°
2026-05-04 14:53 26.68463 -80.08931 22 ft 6 kts 334°
2026-05-04 14:53 26.68504 -80.08934 23 ft 4 kts
2026-05-04 14:54 26.68520 -80.08934 22 ft 2 kts
2026-05-04 14:54 26.68523 -80.08934 22 ft 0 kts